Hourly Data Report for October 12, 2019

All times are specified in Local Standard Time (LST). Add 1 hour to adjust for Daylight Saving Time where and when it is observed.

CORAL HARBOUR A
NUNAVUT
Current Station Operator: NAVCAN

64°11'36.000" N
83°21'34.000" W
62.20 m
2301002
71915
YZS

Download Data

Hourly Data (October 2019)
Hourly Data Report for October 12, 2019
TIME Temp Definition
°C
Dew Point Definition
°C
Rel Hum Definition
%
Wind Dir Definition
10's deg

Wind Spd Definition
km/h
Visibility Definition
km
Stn Press Definition
kPa
Hmdx Definition


Wind Chill Definition


Weather Definition


00:00 -3.2 -4.4 91 27 17 24.1 101.51   -9 LegendNANA
01:00 -3.0 -4.7 88 27 16 24.1 101.51   -8 Mostly Cloudy
02:00 -2.6 -5.6 80 28 16 24.1 101.49   -8 LegendNANA
03:00 -3.2 -6.5 78 27 11 24.1 101.50   -7 LegendNANA
04:00 -4.3 -6.2 87 29 9 24.1 101.52   -8 Mostly Cloudy
05:00 -4.5 -6.1 88 27 13 24.1 101.49   -10 LegendNANA
06:00 -4.4 -6.0 89 27 15 24.1 101.47   -10 LegendNANA
07:00 -3.6 -5.6 86 36 2 24.1 101.47   -4 Mostly Cloudy
08:00 -2.5 -5.1 83 36 3 24.1 101.46   -4 LegendNANA
09:00 -1.8 -4.2 84 24 13 24.1 101.48   -6 LegendNANA
10:00 -1.1 -3.1 86 29 15 24.1 101.47   -6 Mostly Cloudy
11:00 -0.3 -2.4 86 29 13 24.1 101.45   -4 LegendNANA
12:00 0.4 -2.5 80 30 23 24.1 101.46     LegendNANA
13:00 0.4 -2.1 84 29 26 24.1 101.47     Mainly Clear
14:00 0.2 -2.4 83 31 23 24.1 101.51     LegendNANA
15:00 0.3 -2.5 82 30 22 24.1 101.54     LegendNANA
16:00 0.2 -2.4 83 33 10 24.1 101.57     Mainly Clear
17:00 -0.9 -3.3 84 31 11 24.1 101.63   -5 LegendNANA
18:00 -1.7 -3.4 89 36 9 24.1 101.67   -5 LegendNANA
19:00 -1.7 -3.5 88 31 5 24.1 101.70   -4 Mostly Cloudy
20:00 -2.1 -4.5 84 2 10 24.1 101.69   -6 LegendNANA
21:00 -3.9 -5.1 91 5 13 24.1 101.68   -9 LegendNANA
22:00 -4.3 -5.8 89 4 11 24.1 101.63   -9 Mainly Clear
23:00 -4.7 -6.1 89 6 14 24.1 101.59   -10 LegendNANA

Notes on Data Quality.

Legend

  • E = Estimated
  • M = Missing
  • NA = Not Available
Date modified: